Forside
METAR-TAF:

METAR-TAF

Lufthavne :

Cambridge Municipal Airport

Cambridge, Minnesota, USA

Breddekreds: 45-34N, længdekreds: 093-16W, højde: 287 m

Aktuelle vejr

Denne rapport blev lavet for 40 minutter siden, kl. 06:55 UTC
Vind 5 kt fra sydvest
Temperatur 6°C
Fugtighed 56%
Tryk 1010 hPa
Sigt: 16.1 km
skyfri

METAR: KCBG 290655Z AUTO 23005KT 10SM CLR 06/M02 A2983 RMK AO2

Tid: 01:35 (07:35 UTC)


TAF: fraværende

Vejrobservationer og prognoser fra mere end 4000 lufthavne (METAR og TAF).

De gule og røde prikker repræsenterer de meteorologiske stationer.

Flyt musen over at se navnet på stationen.

Så klik over at se vejr observationer og prognoser.

At skifte det kort: Klik på de grønne knapper med et sort kors for at zoome ind; på den grønne knap med en bindestreg for at zoome ud; eller på de grønne pile for tilstødende kort.


METAR-TAF: